INTELSAT 33E DEB, 61994

Orbit data source: Space-Track

INTELSAT 33E DEB, 61994 is space debris in GEO originally from a launch on Wed, 24 Aug 2016 UTC launched from the French Guiana (FRGUI). Debris objects in space refer to the collection of defunct objects orbiting the Earth. Examples of debris include non-operational satellites, rocket bodies, and fragments generated from explosions, collisions, or faulty payload assembly.

Loading next visibility...
Identifier
61994, 2016-053L
Orbit
GEO
Country
Flag of USUS / ITSO
Related business
Manufacturer
Boeing/ES
Mission
Spacecraft
Bus & Motor
Unknown
Mass
Unknown
Launch date (UTC)
2016-08-24 (10 years ago)
Launch vehicle
Unknown
Launch site
French Guiana (FRGUI)
Object type
Payload
Rocket body
Debris
Shape & HBR
Unknown shape, 1.1 m
Radar Cross Section
Large (>1 m²)

Expand to show TLE details & history
Last TLE update: 17 hours ago

TLE from 17 hours ago
0 INTELSAT 33E DEB
1 61994U 16053L   26165.92714740  .00000132  00000-0  00000-0 0  9994
2 61994   1.5812  85.3587 0024657 213.0235 145.8195  1.00504986  6073
Epoch: 2026-06-14T22:15Z
TLE epoch observation values (Epoch: 2026-06-14T22:15:05.535Z)
Latitude
Longitude
-152.63312°
Altitude
35,807.232 km
Speed
3.071 km/s
True Right ascension
05h 37m 26s
True Declination
0° 00' 00"
Sunlit
Object was in daylight at epoch
Visualization orbit readout
Latitude
Unknown
Longitude
Unknown
Altitude
Unknown
Speed
Unknown
Apparent Right ascension
Unknown
Apparent Declination
Unknown
Sunlit
N/A
Visualization observer readout
Local Sidereal Time
01:31:57
Azimuth
Unknown
Elevation
Unknown
Doppler factor
Unknown
Orbital elements
Apogee altitude
35,826.225 km
Perigee altitude
35,618.61 km
Semi-major axis
42,100.554 km
Eccentricity
0.00247
Inclination
1.5812°
RAAN
85.3587°
Arg. of periapsis
213.0235°
True anomaly
145.97783°
Mean anomaly
145.8195°
Eccentric anomaly
145.89871°
Mean motion
0.25125 °/min
Orbital period
1,432.82 mins
BSTAR
0
Loading maneuver chart data...
Computing Atmospheric mass density...
Loading historical data...
Loading historical data...
Loading historical data...
Loading historical data...
Loading historical data...
Loading historical data...
Loading historical data...

Documentation

Showing up to 5 results
|